{"data":{"norad_id":54853,"epoch":"2026-09-20T06:49:35.857056Z","epoch_age_seconds":111304,"freshness":"FRESH","line1":"1 54853U 22177AK  26263.28444279 -.00000923  00000+0 -24024-4 0  9994","line2":"2 54853  43.0037 102.4219 0001780 261.3182  98.7468 15.27570823206855","mean_motion":15.27570823,"eccentricity":0.000178,"inclination_deg":43.0037,"raan_deg":102.4219,"arg_perigee_deg":261.3182,"mean_anomaly_deg":98.7468,"bstar":-2.4024e-5,"rev_number":20685,"period_min":94.267315028444,"perigee_km":481.85527940021,"apogee_km":484.29787143306,"semimajor_km":6861.2135754166,"source":"CELESTRAK","updated_at":"2026-09-21T09:00:33.158239Z"}}